Columbia, MO

7:08 AM CDT on April 21, 2018 (GMT -0500)
Columbia Regional

Weather History for KCOU - March, 2013

Change the Weather History Date:

Thursday, March 14, 2013

  Actual Average Record
Temperature  
Mean Temperature 48 °F 44 °F  
Max Temperature 67 °F 55 °F 85 °F (2012)
Min Temperature 29 °F 33 °F 9 °F (1993)
Degree Days  
Heating Degree Days 17 21  
Month to date heating degree days 403 329  
Since 1 July heating degree days 3986 4275  
Cooling Degree Days 0 0  
Month to date cooling degree days 0 0  
Year to date cooling degree days 1 0  
Moisture  
Dew Point 29 °F    
Average Humidity 51    
Maximum Humidity 69    
Minimum Humidity 33    
Precipitation  
Precipitation 0.00 in 0.09 in 3.88 in (1990)
Month to date precipitation 1.57 1.20  
Year to date precipitation 7.81 5.37  
Snow  
Snow 0.00 in 0.00 in 6.00 in (2011)
Month to date snowfall 0.3 1.1  
Since 1 July snowfall 25.0 17.2  
Snow Depth 0.00 in    
Sea Level Pressure  
Sea Level Pressure 30.19 in    
Wind  
Wind Speed 9 mph (South)    
Max Wind Speed 20 mph    
Max Gust Speed 26 mph    
Visibility 10 miles    
Events      
T = Trace of Precipitation, MM = Missing Value Source: NWS Daily Summary

Daily Weather History Graph

Daily Weather History Graph

Search for Another Location

Airport or City:

Astronomy

Mar. 14, 2013 Rise Set
Actual Time 7:21 AM CDT 7:15 PM CDT
Civil Twilight 6:54 AM CDT 7:41 PM CDT
Nautical Twilight 6:23 AM CDT 8:12 PM CDT
Astronomical Twilight 5:52 AM CDT 8:43 PM CDT
Moon 8:37 AM CDT (3/14) 10:29 PM CDT (3/14)
Length of Visible Light 12h 46m
Length of Day
11h 53m
Waxing Crescent, 9% of the Moon is Illuminated
Mar 14
Waxing Crescent
Mar 19
First Quarter
Mar 27
Full
Apr 2
Last Quarter
Apr 10
New

Hourly Weather History & Observations

Time (CDT) Temp. Windchill Dew Point Humidity Pressure Visibility Wind Dir Wind Speed Gust Speed Precip Events Conditions
12:54 AM 30.9 °F 25.2 °F 19.0 °F 61% 30.38 in 10.0 mi SE 5.8 mph - N/A   Clear
1:54 AM 30.0 °F 24.1 °F 18.0 °F 61% 30.37 in 10.0 mi SSE 5.8 mph - N/A   Clear
2:54 AM 30.0 °F 22.4 °F 19.0 °F 64% 30.36 in 10.0 mi SE 8.1 mph - N/A   Clear
3:54 AM 28.9 °F 21.1 °F 19.0 °F 67% 30.33 in 10.0 mi SSE 8.1 mph - N/A   Clear
4:54 AM 30.9 °F 24.3 °F 19.9 °F 64% 30.31 in 10.0 mi SE 6.9 mph - N/A   Overcast
5:54 AM 30.9 °F 22.8 °F 21.0 °F 67% 30.29 in 10.0 mi SSE 9.2 mph - N/A   Overcast
6:54 AM 30.9 °F 24.3 °F 19.9 °F 64% 30.29 in 10.0 mi SE 6.9 mph - N/A   Partly Cloudy
7:54 AM 33.1 °F 25.5 °F 21.0 °F 61% 30.27 in 10.0 mi SE 9.2 mph - N/A   Overcast
8:54 AM 36.0 °F 27.5 °F 21.0 °F 55% 30.27 in 10.0 mi SSE 12.7 mph - N/A   Overcast
9:54 AM 41.0 °F 34.3 °F 21.0 °F 45% 30.25 in 10.0 mi SSE 11.5 mph - N/A   Mostly Cloudy
10:54 AM 44.1 °F 36.5 °F 23.0 °F 43% 30.21 in 10.0 mi South 17.3 mph - N/A   Overcast
11:54 AM 50.0 °F - 25.0 °F 38% 30.18 in 10.0 mi South 13.8 mph - N/A   Mostly Cloudy
12:54 PM 55.0 °F - 28.0 °F 35% 30.15 in 10.0 mi SSW 15.0 mph 20.7 mph N/A   Mostly Cloudy
1:54 PM 57.9 °F - 28.9 °F 33% 30.12 in 10.0 mi South 9.2 mph - N/A   Scattered Clouds
2:54 PM 64.0 °F - 35.1 °F 34% 30.08 in 10.0 mi WSW 10.4 mph - N/A   Clear
3:54 PM 66.0 °F - 37.9 °F 36% 30.07 in 10.0 mi WSW 16.1 mph - N/A   Clear
4:54 PM 66.0 °F - 39.0 °F 37% 30.06 in 10.0 mi West 13.8 mph - N/A   Clear
5:54 PM 66.0 °F - 39.9 °F 38% 30.06 in 10.0 mi WSW 15.0 mph - N/A   Clear
6:54 PM 62.1 °F - 41.0 °F 46% 30.07 in 10.0 mi West 6.9 mph - N/A   Clear
7:54 PM 61.0 °F - 39.9 °F 46% 30.08 in 10.0 mi West 4.6 mph - N/A   Clear
8:54 PM 57.9 °F - 39.0 °F 49% 30.08 in 10.0 mi NNW 4.6 mph - N/A   Clear
9:54 PM 55.0 °F - 39.0 °F 55% 30.09 in 10.0 mi North 3.5 mph - N/A   Clear
10:54 PM 53.1 °F - 39.0 °F 59% 30.08 in 10.0 mi NNE 5.8 mph - N/A   Clear
11:54 PM 50.0 °F - 39.0 °F 66% 30.08 in 10.0 mi ENE 5.8 mph - N/A   Clear